EW1620 Weather Reports


Display with metric or nautical units.
time (UTC)temp
F
wind
direction
speed
MPH
gust
MPH
rain 1hr
in
rain 24hr
in
rain mn
in
humidity
%
barometer
mb
20260509185122 54 215 1.0 5.0 0.00 0.00 0.00 92 1029.1
20260509184534 54 177 1.0 2.0 0.00 0.00 0.00 92 1029.0
20260509184019 54 175 0.0 3.0 0.00 0.00 0.00 92 1029.0
20260509183519 54 198 0.0 3.0 0.00 0.00 0.00 92 1029.0
20260509183020 54 198 1.0 3.0 0.00 0.00 0.00 92 1028.9
20260509182519 54 196 0.0 2.0 0.00 0.00 0.00 92 1028.9
20260509182018 54 196 0.0 3.0 0.00 0.00 0.00 92 1028.9
20260509181519 54 217 1.0 3.0 0.00 0.00 0.00 92 1028.9
20260509181019 54 226 1.0 5.0 0.00 0.00 0.00 92 1028.8
20260509180518 54 206 1.0 5.0 0.00 0.00 0.00 92 1028.7
20260509180018 54 207 2.0 4.0 0.00 0.00 0.00 92 1028.8
20260509175520 54 236 1.0 4.0 0.00 0.00 0.00 92 1028.7
20260509175118 54 243 2.0 4.0 0.00 0.00 0.00 91 1028.7
20260509174518 54 197 1.0 3.0 0.00 0.00 0.00 91 1028.7
20260509174017 54 207 0.0 2.0 0.00 0.00 0.00 91 1028.7
20260509173517 54 207 0.0 3.0 0.00 0.00 0.00 91 1028.7
20260509173017 54 205 0.0 4.0 0.00 0.00 0.00 91 1028.7
20260509172515 54 229 1.0 4.0 0.00 0.00 0.00 91 1028.8
20260509172016 54 223 1.0 4.0 0.00 0.00 0.00 91 1028.8
20260509171517 54 216 1.0 4.0 0.00 0.00 0.00 91 1028.8
20260509171015 54 208 1.0 4.0 0.00 0.00 0.00 91 1028.8
20260509170514 54 263 0.0 4.0 0.00 0.00 0.00 91 1028.8
20260509170016 54 239 0.0 4.0 0.00 0.00 0.00 91 1028.8
20260509165513 54 236 1.0 4.0 0.00 0.00 0.00 91 1028.9
20260509165114 54 241 1.0 4.0 0.00 0.00 0.00 91 1028.9
20260509164512 54 198 0.0 2.0 0.00 0.00 0.00 91 1028.9
20260509164012 55 219 0.0 6.0 0.00 0.00 0.00 91 1029.0
20260509163511 55 212 2.0 6.0 0.00 0.00 0.00 91 1029.0
20260509163016 55 241 1.0 6.0 0.00 0.00 0.00 91 1029.0
20260509162510 55 208 2.0 6.0 0.00 0.00 0.00 90 1028.9
20260509162010 55 213 2.0 6.0 0.00 0.00 0.00 90 1028.9
20260509161510 55 191 2.0 5.0 0.00 0.00 0.00 90 1029.0
20260509161011 55 199 1.0 6.0 0.00 0.00 0.00 90 1029.0
20260509160508 55 196 1.0 5.0 0.00 0.00 0.00 90 1029.0
20260509160008 55 216 1.0 5.0 0.00 0.00 0.00 90 1029.0
20260509155507 55 172 1.0 4.0 0.00 0.00 0.00 90 1029.0
20260509155107 55 186 1.0 5.0 0.00 0.00 0.00 89 1029.0
20260509154508 55 175 1.0 5.0 0.00 0.00 0.00 89 1029.0
20260509154008 55 178 0.0 3.0 0.00 0.00 0.00 89 1029.1
20260509153506 55 159 0.0 2.0 0.00 0.00 0.00 89 1029.1
20260509153005 55 159 0.0 2.0 0.00 0.00 0.00 89 1029.1
20260509152605 55 159 0.0 2.0 0.00 0.00 0.00 89 1029.0
20260509152004 55 159 0.0 3.0 0.00 0.00 0.00 89 1029.0
20260509151503 55 159 0.0 3.0 0.00 0.00 0.00 88 1029.1
20260509151002 55 114 0.0 2.0 0.00 0.00 0.00 88 1029.1
20260509150502 55 113 0.0 2.0 0.00 0.00 0.00 88 1029.1
20260509150001 55 355 0.0 1.0 0.00 0.00 0.00 88 1029.0
20260509145501 55 355 0.0 1.0 0.00 0.00 0.00 88 1029.0
20260509145101 55 345 0.0 1.0 0.00 0.00 0.00 88 1029.0
20260509144502 55 345 0.0 1.0 0.00 0.00 0.00 88 1029.0
20260509144101 55 345 0.0 0.0 0.00 0.00 0.00 88 1028.9
20260509143600 55 345 0.0 1.0 0.00 0.00 0.00 88 1028.9
20260509143129 55 345 0.0 1.0 0.00 0.00 0.00 88 1028.9
20260509142559 55 345 0.0 1.0 0.00 0.00 0.00 87 1028.9
20260509142102 55 345 0.0 0.0 0.00 0.00 0.00 87 1028.9
20260509141557 55 345 0.0 0.0 0.00 0.00 0.00 87 1028.9
20260509141057 55 345 0.0 1.0 0.00 0.00 0.00 87 1028.9
20260509140555 55 345 0.0 1.0 0.00 0.00 0.00 87 1029.0
20260509140104 55 345 0.0 1.0 0.00 0.00 0.00 87 1029.0
20260509135555 55 345 0.0 1.0 0.00 0.00 0.00 87 1029.0
20260509135057 55 345 0.0 2.0 0.00 0.00 0.00 87 1029.0
20260509134611 55 345 0.0 3.0 0.00 0.00 0.00 87 1029.0
20260509134056 55 26 1.0 3.0 0.00 0.00 0.00 87 1029.0
20260509133556 55 346 1.0 2.0 0.00 0.00 0.00 87 1029.0
20260509133056 55 345 0.0 1.0 0.00 0.00 0.00 86 1029.0
20260509132556 55 345 0.0 1.0 0.00 0.00 0.00 86 1029.0
20260509132058 55 345 0.0 0.0 0.00 0.00 0.00 86 1029.1
20260509131556 55 345 0.0 1.0 0.00 0.00 0.00 86 1029.1
20260509131055 55 345 0.0 1.0 0.00 0.00 0.00 86 1029.0
20260509130555 55 345 0.0 0.0 0.00 0.00 0.00 86 1029.1
20260509130100 55 345 0.0 2.0 0.00 0.00 0.00 86 1029.1
20260509125555 55 345 0.0 3.0 0.00 0.00 0.00 86 1029.0
20260509125054 55 28 1.0 3.0 0.00 0.00 0.00 86 1029.0
20260509124553 55 63 0.0 2.0 0.00 0.00 0.00 86 1029.0
20260509124053 55 67 0.0 2.0 0.00 0.00 0.00 86 1029.0
20260509123553 55 75 0.0 1.0 0.00 0.00 0.00 85 1029.0
20260509123118 54 75 0.0 1.0 0.00 0.00 0.00 85 1029.0
20260509122552 55 75 0.0 1.0 0.00 0.00 0.00 85 1029.0
20260509122052 55 75 0.0 1.0 0.00 0.00 0.00 85 1029.1
20260509121610 54 75 0.0 1.0 0.00 0.00 0.00 85 1029.0
20260509121052 54 75 0.0 1.0 0.00 0.00 0.00 85 1029.0
20260509120552 54 75 0.0 1.0 0.00 0.00 0.00 85 1029.1
20260509115550 54 75 0.0 0.0 0.00 0.00 0.00 84 1029.1
20260509115051 54 75 0.0 0.0 0.00 0.00 0.00 84 1029.0
20260509114552 54 75 0.0 0.0 0.00 0.00 0.00 84 1029.0
20260509114051 54 75 0.0 0.0 0.00 0.00 0.00 84 1028.9
20260509113553 54 75 0.0 0.0 0.00 0.00 0.00 84 1028.9
20260509113049 54 75 0.0 1.0 0.00 0.00 0.00 84 1028.8
20260509112547 54 75 0.0 1.0 0.00 0.00 0.00 84 1028.8
20260509112048 54 75 0.0 1.0 0.00 0.00 0.00 84 1028.7
20260509111600 54 75 0.0 2.0 0.00 0.00 0.00 84 1028.8
20260509111048 54 75 0.0 2.0 0.00 0.00 0.00 84 1028.8
20260509110547 54 171 0.0 1.0 0.00 0.00 0.00 83 1028.7
20260509110047 54 171 0.0 1.0 0.00 0.00 0.00 83 1028.7
20260509105547 54 171 0.0 1.0 0.00 0.00 0.00 83 1028.7
20260509105047 54 171 0.0 1.0 0.00 0.00 0.00 82 1028.8
20260509104548 54 171 0.0 0.0 0.00 0.00 0.00 82 1028.8
20260509104046 54 171 0.0 1.0 0.00 0.00 0.00 82 1028.8
20260509103546 54 171 0.0 1.0 0.00 0.00 0.00 82 1028.8
20260509103059 54 171 0.0 1.0 0.00 0.00 0.00 82 1028.7
20260509102545 54 171 0.0 0.0 0.00 0.00 0.00 81 1028.7
20260509102046 54 171 0.0 0.0 0.00 0.00 0.00 81 1028.7
20260509101616 54 171 0.0 0.0 0.00 0.00 0.00 80 1028.7
20260509101044 54 171 0.0 0.0 0.00 0.00 0.00 79 1028.6
20260509100545 54 171 0.0 0.0 0.00 0.00 0.00 79 1028.6
20260509100045 54 171 0.0 0.0 0.00 0.00 0.00 78 1028.6
20260509095545 54 171 0.0 0.0 0.00 0.00 0.00 77 1028.6
20260509095045 54 171 0.0 1.0 0.00 0.00 0.00 77 1028.6
20260509094545 54 171 0.0 0.0 0.00 0.00 0.00 77 1028.5
20260509094045 55 171 0.0 0.0 0.00 0.00 0.00 76 1028.6
20260509093545 55 171 0.0 0.0 0.00 0.00 0.00 76 1028.6
20260509093045 55 171 0.0 0.0 0.00 0.00 0.00 75 1028.6
20260509092544 55 171 0.0 0.0 0.00 0.00 0.00 75 1028.6
20260509092044 56 171 0.0 0.0 0.00 0.00 0.00 74 1028.5
20260509091544 56 171 0.0 0.0 0.00 0.00 0.00 74 1028.5
20260509091043 56 171 0.0 0.0 0.00 0.00 0.00 74 1028.5
20260509090543 56 171 0.0 1.0 0.00 0.00 0.00 74 1028.4
20260509090044 57 170 0.0 1.0 0.00 0.00 0.00 74 1028.5
20260509085541 57 170 0.0 1.0 0.00 0.00 0.00 73 1028.4
20260509085041 57 170 0.0 2.0 0.00 0.00 0.00 73 1028.3
20260509084546 57 170 0.0 2.0 0.00 0.00 0.00 73 1028.3
20260509084042 58 170 0.0 1.0 0.00 0.00 0.00 73 1028.2
20260509083540 58 170 0.0 2.0 0.00 0.00 0.00 73 1028.2
20260509083041 58 170 0.0 2.0 0.00 0.00 0.00 73 1028.1
20260509082540 58 170 0.0 1.0 0.00 0.00 0.00 73 1028.0
20260509082040 59 170 0.0 1.0 0.00 0.00 0.00 73 1027.9
20260509081543 59 170 0.0 2.0 0.00 0.00 0.00 73 1027.9
20260509081040 59 170 0.0 3.0 0.00 0.00 0.00 73 1027.9
20260509080539 60 171 0.0 3.0 0.00 0.00 0.00 72 1027.8
20260509080040 60 171 0.0 3.0 0.00 0.00 0.00 72 1027.7
20260509075540 60 169 1.0 5.0 0.00 0.00 0.00 71 1027.6
20260509075040 61 115 1.0 5.0 0.00 0.00 0.00 70 1027.5
20260509074545 61 163 0.0 3.0 0.00 0.00 0.00 70 1027.4
20260509074038 61 163 0.0 3.0 0.00 0.00 0.00 69 1027.3
20260509073540 62 126 0.0 3.0 0.00 0.00 0.00 69 1027.2
20260509073038 62 126 0.0 3.0 0.00 0.00 0.00 68 1027.2
20260509072538 62 126 0.0 4.0 0.00 0.00 0.00 68 1027.2
20260509072039 63 140 1.0 3.0 0.00 0.00 0.00 67 1027.1
20260509071545 63 159 0.0 3.0 0.00 0.00 0.00 66 1027.0
20260509071037 63 157 0.0 2.0 0.00 0.00 0.00 65 1027.0
20260509070537 63 157 0.0 2.0 0.00 0.00 0.00 65 1026.9
20260509070138 63 157 0.0 2.0 0.00 0.00 0.00 65 1027.0
20260509065538 64 157 1.0 5.0 0.00 0.00 0.00 65 1026.9
20260509065036 64 160 0.0 2.0 0.00 0.00 0.00 64 1026.8
20260509064542 64 160 0.0 2.0 0.00 0.00 0.00 64 1026.8
20260509064037 64 160 1.0 3.0 0.00 0.00 0.00 64 1026.9
20260509063534 64 159 0.0 5.0 0.00 0.00 0.00 63 1026.8
20260509063034 64 157 1.0 5.0 0.00 0.00 0.00 63 1026.8
20260509062534 65 135 0.0 3.0 0.00 0.00 0.00 63 1026.8
20260509062034 65 161 1.0 4.0 0.00 0.00 0.00 63 1026.8
20260509061534 65 153 0.0 4.0 0.00 0.00 0.00 62 1026.8
20260509061035 65 128 1.0 4.0 0.00 0.00 0.00 62 1026.7
20260509060534 65 190 1.0 3.0 0.00 0.00 0.00 62 1026.7
20260509060037 65 275 1.0 3.0 0.00 0.00 0.00 63 1026.7
20260509055533 65 198 0.0 3.0 0.00 0.00 0.00 63 1026.7
20260509055032 65 180 0.0 3.0 0.00 0.00 0.00 63 1026.7
20260509054545 65 196 0.0 3.0 0.00 0.00 0.00 63 1026.7
20260509054038 65 182 1.0 4.0 0.00 0.00 0.00 63 1026.7
20260509053535 65 171 1.0 6.0 0.00 0.00 0.00 63 1026.7
20260509053035 65 195 0.0 6.0 0.00 0.00 0.00 64 1026.8
20260509052533 65 186 1.0 5.0 0.00 0.00 0.00 63 1026.8
20260509052033 64 211 1.0 4.0 0.00 0.00 0.00 64 1026.8
20260509051533 64 150 0.0 5.0 0.00 0.00 0.00 64 1026.8
20260509051031 64 147 2.0 7.0 0.00 0.00 0.00 65 1026.8
20260509050533 64 200 1.0 3.0 0.00 0.00 0.00 65 1026.8
20260509050036 64 146 1.0 6.0 0.00 0.00 0.00 64 1026.8
20260509045532 64 175 3.0 6.0 0.00 0.00 0.00 65 1026.9
20260509045031 64 178 1.0 8.0 0.00 0.00 0.00 65 1026.9
20260509044529 64 173 2.0 8.0 0.00 0.00 0.00 64 1026.9
20260509044028 64 122 2.0 6.0 0.00 0.00 0.00 65 1026.9
20260509043528 64 96 0.0 6.0 0.00 0.00 0.00 65 1026.8
20260509043029 64 171 2.0 7.0 0.00 0.00 0.00 65 1026.9
20260509042528 64 150 3.0 7.0 0.00 0.00 0.00 65 1026.9
20260509042031 64 170 2.0 5.0 0.00 0.00 0.00 66 1026.9
20260509041539 64 96 1.0 5.0 0.00 0.00 0.00 66 1026.9
20260509041026 63 218 2.0 6.0 0.00 0.00 0.00 67 1026.9
20260509040525 63 202 2.0 5.0 0.00 0.00 0.00 66 1026.8
20260509040029 63 152 2.0 5.0 0.00 0.00 0.00 67 1026.9
20260509035527 63 128 2.0 7.0 0.00 0.00 0.00 67 1026.9
20260509035025 63 169 1.0 7.0 0.00 0.00 0.00 67 1026.8
20260509034526 63 198 1.0 7.0 0.00 0.00 0.00 67 1026.8
20260509034028 63 123 2.0 7.0 0.00 0.00 0.00 68 1027.0
20260509033528 63 178 0.0 6.0 0.00 0.00 0.00 67 1027.0
20260509033025 63 172 2.0 7.0 0.00 0.00 0.00 66 1027.1
20260509032524 63 155 2.0 7.0 0.00 0.00 0.00 67 1027.1
20260509032027 63 138 2.0 5.0 0.00 0.00 0.00 67 1027.1
20260509031532 63 146 2.0 9.0 0.00 0.00 0.00 66 1027.2
20260509031024 63 213 3.0 9.0 0.00 0.00 0.00 66 1027.2
20260509030524 63 159 1.0 4.0 0.00 0.00 0.00 67 1027.3
20260509030024 63 180 1.0 4.0 0.00 0.01 0.00 67 1027.4
20260509025522 63 210 1.0 7.0 0.00 0.01 0.00 68 1027.5
20260509025026 63 207 2.0 7.0 0.00 0.01 0.00 68 1027.5
20260509024520 62 225 0.0 5.0 0.00 0.01 0.00 68 1027.5
20260509024021 62 174 3.0 7.0 0.00 0.01 0.00 68 1027.6
20260509023520 62 175 2.0 9.0 0.00 0.01 0.00 68 1027.7
20260509023024 62 189 3.0 9.0 0.00 0.01 0.00 69 1027.8
20260509022520 62 137 4.0 9.0 0.00 0.01 0.00 68 1027.9
20260509022020 62 178 3.0 7.0 0.00 0.01 0.00 68 1027.9
20260509021519 62 178 3.0 7.0 0.00 0.01 0.00 69 1028.0
20260509021020 62 206 3.0 7.0 0.00 0.01 0.00 69 1028.1
20260509020520 62 186 1.0 8.0 0.00 0.01 0.00 70 1028.1
20260509020032 62 167 3.0 8.0 0.00 0.01 0.00 69 1028.1
20260509015518 62 207 3.0 8.0 0.00 0.01 0.00 70 1028.1
20260509015021 62 200 2.0 7.0 0.00 0.01 0.00 70 1028.1
20260509014519 62 181 4.0 8.0 0.00 0.01 0.00 71 1028.2
20260509014015 62 159 2.0 10.0 0.00 0.01 0.00 72 1028.1
20260509013514 62 194 3.0 8.0 0.00 0.01 0.00 72 1028.1
20260509013020 62 171 2.0 8.0 0.00 0.01 0.00 72 1028.1
20260509012510 61 153 1.0 6.0 0.00 0.01 0.00 73 1028.1
20260509012010 61 155 2.0 8.0 0.00 0.01 0.00 73 1028.2
20260509011510 61 149 3.0 8.0 0.00 0.01 0.00 73 1028.1
20260509011009 61 231 2.0 8.0 0.00 0.01 0.00 74 1028.1
20260509010508 61 190 2.0 7.0 0.00 0.01 0.00 74 1028.2
20260509010008 61 106 2.0 7.0 0.00 0.01 0.00 74 1028.2
20260509005507 61 193 3.0 7.0 0.00 0.01 0.00 75 1028.2
20260509005006 60 208 2.0 6.0 0.00 0.01 0.00 76 1028.2
20260509004510 60 155 2.0 6.0 0.00 0.01 0.00 77 1028.2
20260509004006 60 189 2.0 8.0 0.00 0.01 0.00 79 1028.2
20260509003502 59 132 3.0 8.0 0.00 0.01 0.00 80 1028.2
20260509003001 59 207 2.0 8.0 0.00 0.01 0.00 82 1028.1
20260509002603 58 168 2.0 8.0 0.00 0.01 0.00 83 1028.2
20260509002058 58 150 2.0 7.0 0.00 0.01 0.00 84 1028.2
20260509001557 57 188 2.0 6.0 0.00 0.01 0.00 85 1028.2
20260509001056 57 185 1.0 6.0 0.00 0.01 0.00 86 1028.2
20260509000600 57 197 3.0 8.0 0.00 0.01 0.00 87 1028.2
20260509000104 57 234 2.0 5.0 0.00 0.01 0.00 89 1028.2
20260508235554 57 220 3.0 6.0 0.00 0.01 0.00 90 1028.1
20260508235054 56 198 1.0 4.0 0.00 0.01 0.00 91 1028.1
20260508234554 56 205 1.0 6.0 0.00 0.01 0.00 92 1028.2
20260508234053 55 197 2.0 6.0 0.00 0.01 0.00 92 1028.2
20260508233549 55 217 1.0 4.0 0.00 0.01 0.00 93 1028.1
20260508233048 54 214 1.0 4.0 0.00 0.01 0.00 93 1028.1
20260508232546 54 233 1.0 4.0 0.00 0.01 0.00 93 1028.1
20260508232045 53 174 1.0 4.0 0.00 0.01 0.00 93 1028.1
20260508231543 53 273 0.0 3.0 0.00 0.01 0.00 93 1028.0
20260508231042 52 165 0.0 1.0 0.00 0.01 0.00 93 1028.0
20260508230540 51 167 0.0 1.0 0.00 0.01 0.00 93 1028.0
20260508230044 51 167 0.0 0.0 0.00 0.01 0.00 93 1028.0
20260508225538 50 167 0.0 0.0 0.00 0.01 0.00 92 1028.0
20260508225036 50 167 0.0 1.0 0.00 0.01 0.00 92 1028.0
20260508224536 50 166 0.0 1.0 0.00 0.01 0.00 92 1028.1
20260508224035 49 166 0.0 2.0 0.00 0.01 0.00 91 1028.1
20260508223536 49 166 0.0 2.0 0.00 0.01 0.00 91 1028.0
20260508223034 49 252 0.0 2.0 0.00 0.01 0.00 91 1027.9
20260508222533 49 252 0.0 2.0 0.00 0.01 0.00 91 1027.8
20260508222030 49 252 0.0 1.0 0.00 0.01 0.00 90 1027.7
20260508221530 48 252 0.0 1.0 0.00 0.01 0.00 90 1027.7
20260508221028 48 252 0.0 1.0 0.00 0.01 0.00 90 1027.5
20260508220529 48 252 0.0 0.0 0.00 0.01 0.00 90 1027.5
20260508220028 48 252 0.0 0.0 0.00 0.01 0.00 90 1027.5
20260508215531 48 252 0.0 0.0 0.00 0.01 0.00 90 1027.5
20260508215025 48 252 0.0 1.0 0.00 0.01 0.00 90 1027.5
20260508214528 48 252 0.0 1.0 0.00 0.01 0.00 90 1027.5
20260508214022 48 252 0.0 1.0 0.00 0.01 0.00 90 1027.4
20260508213521 48 252 0.0 1.0 0.00 0.01 0.00 90 1027.4
20260508213020 49 252 0.0 1.0 0.00 0.01 0.00 89 1027.4
20260508212519 49 252 0.0 1.0 0.00 0.01 0.00 89 1027.4
20260508212016 49 252 0.0 0.0 0.00 0.01 0.00 89 1027.5
20260508211532 49 252 0.0 0.0 0.00 0.01 0.00 89 1027.4
20260508211015 49 252 0.0 0.0 0.00 0.01 0.00 90 1027.4
20260508210514 49 252 0.0 0.0 0.00 0.01 0.00 90 1027.4
20260508210014 49 252 0.0 1.0 0.00 0.01 0.00 89 1027.3
20260508205513 49 252 0.0 1.0 0.00 0.01 0.00 89 1027.3
20260508205013 49 252 0.0 1.0 0.00 0.01 0.00 89 1027.3
20260508204513 49 252 0.0 1.0 0.00 0.01 0.00 89 1027.3
20260508204011 49 252 0.0 2.0 0.00 0.01 0.00 89 1027.2
20260508203511 49 252 0.0 2.0 0.00 0.01 0.00 89 1027.1
20260508203010 49 252 0.0 1.0 0.00 0.01 0.00 89 1027.1
20260508202511 49 252 0.0 1.0 0.00 0.01 0.00 89 1027.1
20260508202011 49 252 0.0 1.0 0.00 0.01 0.00 89 1027.1
20260508201510 49 252 0.0 1.0 0.00 0.01 0.00 89 1027.0
20260508201013 49 252 0.0 1.0 0.00 0.01 0.00 89 1027.0
20260508200509 49 252 0.0 1.0 0.00 0.01 0.00 89 1027.0
20260508200008 49 252 0.0 1.0 0.00 0.01 0.00 89 1026.9
20260508195510 49 252 0.0 0.0 0.00 0.01 0.00 88 1026.9
20260508195007 49 252 0.0 1.0 0.00 0.01 0.00 88 1026.9
20260508194514 49 252 0.0 1.0 0.00 0.01 0.00 88 1026.8
20260508194006 49 252 0.0 0.0 0.00 0.01 0.00 88 1026.7
20260508193503 50 252 0.0 0.0 0.00 0.01 0.00 88 1026.7
20260508193003 50 252 0.0 0.0 0.00 0.01 0.00 88 1026.7
20260508192503 50 252 0.0 0.0 0.00 0.01 0.00 88 1026.7
20260508192004 50 252 0.0 0.0 0.00 0.01 0.00 88 1026.6
20260508191504 50 252 0.0 0.0 0.00 0.01 0.00 88 1026.5
20260508191003 50 252 0.0 0.0 0.00 0.01 0.00 88 1026.6
20260508190504 50 252 0.0 0.0 0.00 0.01 0.00 88 1026.5
20260508190006 50 252 0.0 0.0 0.00 0.01 0.00 88 1026.6
20260508185501 49 252 0.0 0.0 0.00 0.01 0.00 88 1026.5